Location: Eekst
(53.0191°N, 6.7366°E)
Time: 08:36:27
(UTC+00:00)

Cosmos 2227 Rocket - Pass Details

Date: 15 May 2026
Orbit: 837 x 844 km, 71.0° (Epoch: 5 June)

Event Time Altitude Azimuth Distance (km) Brightness Sun altitude
Exits shadow 22:55:54 17° 125° (SE) 2,002 3.8 -17.6°
Maximum altitude 22:57:46 20° 100° (E) 1,856 3.8 -17.6°
Drops below altitude 10° 23:01:45 10° 55° (NE) 2,474 5.0 -17.7°
Sets 23:04:48 0° 40° (NE) 3,414 6.0 -17.7°
